AirNav   Air Wisconsin Up To $57,000 Bonus
 
 1101 users online  

53A Dr. C P Savage Sr. Airport
Montezuma, Georgia, USA

GOING TO MONTEZUMA?


FAA INFORMATION EFFECTIVE 16 JUNE 2022

Location

FAA Identifier: 53A
Lat/Long: 32-18-11.0280N 084-00-26.8850W
32-18.183800N 084-00.448083W
32.3030633,-84.0074681
(estimated)
Elevation: 345.3 ft. / 105.2 m (surveyed)
Variation: 04W (2005)
From city: 1 mile E of MONTEZUMA, GA
Time zone: UTC -4 (UTC -5 during Standard Time)
Zip code: 31063

Airport Operations

Airport use: Open to the public
Activation date: 09/1962
Control tower: no
ARTCC: ATLANTA CENTER
FSS: MACON FLIGHT SERVICE STATION
NOTAMs facility: MCN (NOTAM-D service available)
Attendance: UNATNDD
Wind indicator: lighted
Segmented circle: no
Lights: ACTVT PAPI RWY 18 & 36; MIRL RWY 18/36 - CTAF.
Beacon: white-green (lighted land airport)
Operates sunset to sunrise.

Airport Communications

CTAF: 122.9
ATLANTA APPROACH: 124.2
ATLANTA DEPARTURE: 124.2
WX AWOS-3 at ACJ (15 nm SW): 128.375 (229-928-0934)
WX AWOS-3 at PXE (17 nm NE): 123.825 (478-987-8768)
WX AWOS-3 at 6A1 (20 nm NW): 119.525 (478-862-2966)
  • ATLANTA LARGE TRACON PROVIDES APCH/DEP SVC 0615-2300 ON FREQ 124.2/279.6 ; ATLANTA ARTCC PROVIDES APCH/DEP SVC 2300-0615 ON FREQS 134.5/360.75 (MACON RCAG).

Airport Services

Parking: tiedowns
Airframe service: NONE
Powerplant service: NONE
Bottled oxygen: NONE
Bulk oxygen: NONE

Runway Information

Runway 18/36

Dimensions: 5003 x 75 ft. / 1525 x 23 m
Surface: asphalt, in good condition
Weight bearing capacity: 
Single wheel: 30.0
Runway edge lights: medium intensity
RUNWAY 18  RUNWAY 36
Latitude: 32-18.596318N32-17.771290N
Longitude: 084-00.443622W084-00.452542W
Elevation: 345.3 ft.337.1 ft.
Traffic pattern: leftleft
Runway heading: 185 magnetic, 181 true005 magnetic, 001 true
Displaced threshold: 783 ft.no
Markings: nonprecision, in good conditionnonprecision, in good condition
Visual slope indicator: 2-light PAPI on left (3.30 degrees glide path)2-light PAPI on left (3.00 degrees glide path)
Touchdown point: yes, no lightsyes, no lights
Obstructions: 11 ft. gnd, 420 ft. from runway, 20:1 slope to clear
34:1 TO DISPLACED THRESHOLD
26 ft. pole, 1084 ft. from runway, 250 ft. left of centerline, 34:1 slope to clear

Airport Ownership and Management from official FAA records

Ownership: Publicly-owned
Owner: CITY OF MONTEZUMA
CITY HALL, P.O. BOX 388
MONTEZUMA, GA 31063
Phone 478-472-8144
Manager: MEL FULGHOM
CITY HALL, P.O. BOX 388
MONTEZUMA, GA 31063
Phone 478-472-8144

Airport Operational Statistics

Aircraft based on the field: 11
Single engine airplanes: 9
Multi engine airplanes: 2
    
Aircraft operations: avg 96/week *
70% local general aviation
30% transient general aviation
* for 12-month period ending 01 December 2021

Additional Remarks

FOR CD CTC ATLANTA APCH AT 678-364-6132, WHEN APCH CLSD CTC ATLANTA ARTCC AT 770-210-7692.

Instrument Procedures

NOTE: All procedures below are presented as PDF files. If you need a reader for these files, you should download the free Adobe Reader.

NOT FOR NAVIGATION. Please procure official charts for flight.
FAA instrument procedures published for use from 16 June 2022 at 0901Z to 14 July 2022 at 0900z.

 
IAPs - Instrument Approach Procedures
RNAV (GPS) RWY 18   download (205KB)
RNAV (GPS) RWY 36   download (209KB)
NOTE: Special Take-Off Minimums/Departure Procedures apply   download (489KB)

Other nearby airports with instrument procedures:

KACJ - Jimmy Carter Regional Airport (15 nm SW)
KPXE - Perry-Houston County Airport (17 nm NE)
6A1 - Butler Municipal Airport (20 nm NW)
KCKF - Crisp County-Cordele Airport (22 nm SE)
KWRB - Robins Air Force Base (29 nm NE)
 
Loc | Ops | Rwys | IFR | FBO | Links
Com | Nav | Svcs | Stats | Notes
Area around 53A (Dr. C P Savage Sr. Airport)
 
Road maps at: MapQuest Bing Google
 
Aerial photo
WARNING: Photo may not be current or correct
Aerial photo of 53A (Dr. C P Savage Sr. Airport)
Do you have a better or more recent aerial photo of Dr. C P Savage Sr. Airport that you would like to share? If so, please send us your photo.

 
Sectional chart

 
Airport distance calculator
Flying to Dr. C P Savage Sr. Airport? Find the distance to fly.

From to 53A

Sunrise and sunset
Times for 26-Jun-2022
 Local
(UTC-4)
 Zulu
(UTC)
Morning civil twilight06:0410:04
Sunrise06:3210:32
Sunset20:4600:46
Evening civil twilight21:1401:14

Current date and time
Zulu (UTC)  26-Jun-2022 21:09:22
Local (UTC-4)  26-Jun-2022 17:09:22
 
METAR
KACJ 
15nm SW 
262050Z AUTO 08007KT 10SM CLR 35/14 A3008 RMK AO2
KPXE 
17nm NE 
262055Z AUTO 10004KT 10SM BKN080 OVC100 32/16 A3007 RMK AO2 T03220159
K6A1 
20nm NW 
262055Z AUTO 12007KT 100V170 10SM SCT065 SCT080 BKN090 33/15 A3008 RMK AO2 T03310150
KCKF 
22nm SE 
262050Z AUTO 15004KT 10SM CLR 34/13 A3006 RMK AO2 T03350131
KWRB 
29nm NE 
262056Z 03004KT 10SM SCT080 BKN100 32/19 A3005 RMK AO2A SLP175 T03170190 56017
KMCN 
29nm NE 
262053Z 00000KT 10SM BKN065 32/17 A3006 RMK AO2 SLPNO T03220172 56017
TAF
KWRB 
29nm NE 
261600Z 2616/2722 VRB06KT 9999 FEW050 SCT200 QNH2999INS TX34/2620Z TN21/2708Z
KMCN 
29nm NE 
261742Z 2618/2718 00000KT P6SM SCT070 FM270400 15005KT P6SM SCT250 FM271500 21005KT P6SM FEW040
NOTAMs
Click for the latest NOTAMs
NOTAMs are issued by the DoD/FAA and will open in a separate window not controlled by AirNav.

 

 
 

Would you like to see your business listed on this page?

 If your business provides an interesting product or service to pilots, flight crews, aircraft, or users of the Dr. C P Savage Sr. Airport, you should consider listing it here.  To start the listing process, click on the button below
 
Add a business
 

Other Pages about Dr. C P Savage Sr. Airport

Update a link
 
Copyright © AirNav, LLC. All rights reserved. Privacy Policy  Contact